User: anonymous   Login
Location: *
(2.7500°S, 66.6833°W)
Time: 06:21:17
(UTC+00:00)
Language:

Cosmos-2242 - Orbit

View from above orbital plane
View from above orbital plane
View from above satellite
View from above satellite

Ground track
Ground track

The orbit data is extracted from the following two-line orbital elements,

1 22626U 93024A   24201.82688796  .00003823  00000-0  37223-3 0  9995
2 22626  82.5217 116.8041 0018497 147.3573 212.8794 14.92148863691088
Epoch (UTC): 19 July 2024 19:50:43
Eccentricity: 0.0018497
inclination: 82.5217°
perigee height: 578 km
apogee height: 604 km
right ascension of ascending node: 116.8041°
argument of perigee: 147.3573°
revolutions per day: 14.92148863
mean anomaly at epoch: 212.8794°
orbit number at epoch: 69108

The dashed part of the orbit path shows where the satellite is in the earth's shadow,  

DLR